{"data":{"norad_id":62873,"intl_designator":"2025-022V","name":"STARLINK-32833","alt_names":[],"object_type":"PAYLOAD","status":"ACTIVE","operator":null,"country":"US","launch_date":"2025-02-01","launch_site_code":"AFWTR","launch_vehicle":null,"mission":null,"orbit_class":"UNKNOWN","rcs_meters":null,"size_class":null,"mass_kg":null,"dimensions":null,"purposes":["comms"],"wikipedia_slug":null,"has_3d_model":false,"image_url":null,"decayed_at":null,"tle_current":{"epoch":"2026-05-25T02:57:44.390880Z","epoch_age_seconds":60276,"freshness":"FRESH","line1":"1 62873U 25022V   26145.12343045  .00011875  00000+0  41236-3 0  9997","line2":"2 62873  53.1567 134.5066 0000959  74.2188 285.8918 15.30203764 73601","mean_motion":15.30203764,"eccentricity":9.59e-5,"inclination_deg":53.1567,"raan_deg":134.5066,"arg_perigee_deg":74.2188,"mean_anomaly_deg":285.8918,"bstar":0.00041236,"rev_number":7360,"period_min":94.10511422582,"perigee_km":474.54659543115,"apogee_km":475.8610662025,"semimajor_km":6853.3408308168,"source":"CELESTRAK","updated_at":"2026-05-25T13:38:19.787428Z"}}}